Time,TemperatureF,DewpointF,PressureIn,WindDirection,WindDirectionDegrees,WindSpeedMPH,WindSpeedGustMPH,Humidity,HourlyPrecipIn,Conditions,Clouds,dailyrainin,SoftwareType,DateUTC
2013-02-13 00:04:00,31.1,-58.6,29.77,SSW,202,0.0,-999.0,1,-99.99,,,0.00,Acu-Link.com,2013-02-13 05:04:00,
2013-02-13 00:19:00,31.3,-58.5,29.76,ENE,67,0.0,-999.0,1,-99.99,,,0.00,Acu-Link.com,2013-02-13 05:19:00,
2013-02-13 00:34:00,31.1,-58.6,29.77,SSE,157,1.7,-999.0,1,-99.99,,,0.00,Acu-Link.com,2013-02-13 05:34:00,
2013-02-13 00:49:00,30.9,-58.8,29.77,SE,135,0.0,-999.0,1,-99.99,,,0.00,Acu-Link.com,2013-02-13 05:49:00,
2013-02-13 01:04:00,30.7,-58.9,29.78,ESE,112,0.0,-999.0,1,-99.99,,,0.00,Acu-Link.com,2013-02-13 06:04:00,
2013-02-13 01:20:00,30.7,-58.9,29.78,SSE,157,0.0,-999.0,1,-99.99,,,0.00,Acu-Link.com,2013-02-13 06:20:00,
2013-02-13 01:35:00,30.4,-59.1,29.79,WSW,247,0.0,-999.0,1,-99.99,,,0.00,Acu-Link.com,2013-02-13 06:35:00,
2013-02-13 01:50:00,30.2,-59.2,29.79,East,90,0.0,-999.0,1,-99.99,,,0.00,Acu-Link.com,2013-02-13 06:50:00,
2013-02-13 02:06:00,30.2,-59.2,29.79,NE,45,1.1,-999.0,1,-99.99,,,0.00,Acu-Link.com,2013-02-13 07:06:00,
2013-02-13 02:21:00,29.8,-59.4,29.78,SW,225,0.0,-999.0,1,-99.99,,,0.00,Acu-Link.com,2013-02-13 07:21:00,
2013-02-13 02:36:00,29.8,-59.4,29.78,South,180,1.7,-999.0,1,-99.99,,,0.00,Acu-Link.com,2013-02-13 07:36:00,
2013-02-13 02:52:00,29.7,-59.5,29.78,SW,225,0.0,-999.0,1,-99.99,,,0.00,Acu-Link.com,2013-02-13 07:52:00,
2013-02-13 03:07:00,29.7,-59.5,29.78,West,270,1.7,-999.0,1,-99.99,,,0.00,Acu-Link.com,2013-02-13 08:07:00,
2013-02-13 03:22:00,29.7,-59.5,29.77,NE,45,0.0,-999.0,1,-99.99,,,0.00,Acu-Link.com,2013-02-13 08:22:00,
2013-02-13 03:37:00,28.9,-60.0,29.76,East,90,0.0,-999.0,1,-99.99,,,0.00,Acu-Link.com,2013-02-13 08:37:00,
2013-02-13 03:53:00,28.2,-60.4,29.75,East,90,0.0,-999.0,1,-99.99,,,0.00,Acu-Link.com,2013-02-13 08:53:00,
2013-02-13 04:16:00,27.7,-60.8,29.75,East,90,0.0,-999.0,1,-99.99,,,0.00,Acu-Link.com,2013-02-13 09:16:00,
2013-02-13 04:31:00,27.1,-61.1,29.74,ENE,67,0.0,-999.0,1,-99.99,,,0.00,Acu-Link.com,2013-02-13 09:31:00,
2013-02-13 04:46:00,27.1,-61.1,29.75,West,270,0.0,-999.0,1,-99.99,,,0.00,Acu-Link.com,2013-02-13 09:46:00,
2013-02-13 05:01:00,27.0,-61.2,29.74,West,270,0.0,-999.0,1,-99.99,,,0.00,Acu-Link.com,2013-02-13 10:01:00,
2013-02-13 05:16:00,26.6,-61.4,29.74,WSW,247,0.0,-999.0,1,-99.99,,,0.00,Acu-Link.com,2013-02-13 10:16:00,
2013-02-13 05:31:00,26.8,-61.3,29.75,SSE,157,0.0,-999.0,1,-99.99,,,0.00,Acu-Link.com,2013-02-13 10:31:00,
2013-02-13 05:47:00,27.0,-61.2,29.75,SSE,157,1.7,-999.0,1,-99.99,,,0.00,Acu-Link.com,2013-02-13 10:47:00,
2013-02-13 06:02:00,27.3,-61.0,29.75,SSE,157,0.0,-999.0,1,-99.99,,,0.00,Acu-Link.com,2013-02-13 11:02:00,
2013-02-13 06:17:00,27.5,-60.9,29.74,SSW,202,0.0,-999.0,1,-99.99,,,0.00,Acu-Link.com,2013-02-13 11:17:00,
2013-02-13 06:33:00,27.1,-61.1,29.74,SE,135,0.0,-999.0,1,-99.99,,,0.00,Acu-Link.com,2013-02-13 11:33:00,
2013-02-13 06:48:00,27.0,-61.2,29.74,WSW,247,0.0,-999.0,1,-99.99,,,0.00,Acu-Link.com,2013-02-13 11:48:00,
2013-02-13 07:03:00,26.8,-61.3,29.74,ESE,112,0.0,-999.0,1,-99.99,,,0.00,Acu-Link.com,2013-02-13 12:03:00,
2013-02-13 07:19:00,26.8,-61.3,29.73,NE,45,0.0,-999.0,1,-99.99,,,0.00,Acu-Link.com,2013-02-13 12:19:00,
2013-02-13 07:34:00,27.0,-61.2,29.74,NNW,337,0.0,-999.0,1,-99.99,,,0.00,Acu-Link.com,2013-02-13 12:34:00,
2013-02-13 07:49:00,27.0,-61.2,29.73,NNW,337,0.0,-999.0,1,-99.99,,,0.00,Acu-Link.com,2013-02-13 12:49:00,
2013-02-13 08:04:00,27.5,-60.9,29.73,NNW,337,0.0,-999.0,1,-99.99,,,0.00,Acu-Link.com,2013-02-13 13:04:00,
2013-02-13 08:20:00,28.2,-60.4,29.73,NNW,337,0.0,-999.0,1,-99.99,,,0.00,Acu-Link.com,2013-02-13 13:20:00,
2013-02-13 08:35:00,30.0,-59.3,29.72,NE,45,0.0,-999.0,1,-99.99,,,0.00,Acu-Link.com,2013-02-13 13:35:00,
2013-02-13 08:50:00,31.3,-58.5,29.71,NNE,22,2.2,-999.0,1,-99.99,,,0.00,Acu-Link.com,2013-02-13 13:50:00,
2013-02-13 09:05:00,32.5,-57.8,29.70,ESE,112,0.0,-999.0,1,-99.99,,,0.00,Acu-Link.com,2013-02-13 14:05:00,
2013-02-13 09:20:00,34.5,-56.5,29.72,North,0,1.7,-999.0,1,-99.99,,,0.00,Acu-Link.com,2013-02-13 14:20:00,
2013-02-13 09:37:00,35.4,-56.0,29.71,NE,45,0.0,-999.0,1,-99.99,,,0.00,Acu-Link.com,2013-02-13 14:37:00,
2013-02-13 09:52:00,36.0,-55.6,29.69,NNE,22,3.2,-999.0,1,-99.99,,,0.00,Acu-Link.com,2013-02-13 14:52:00,
2013-02-13 10:14:00,36.7,-55.1,29.69,ESE,112,0.0,-999.0,1,-99.99,,,0.00,Acu-Link.com,2013-02-13 15:14:00,
2013-02-13 10:33:00,39.2,38.7,29.71,ENE,67,1.7,-999.0,98,-99.99,,,0.00,Acu-Link.com,2013-02-13 15:33:00,
2013-02-13 10:48:00,39.4,38.9,29.71,SSE,157,4.7,-999.0,98,-99.99,,,0.00,Acu-Link.com,2013-02-13 15:48:00,
2013-02-13 11:03:00,39.0,38.2,29.72,South,180,1.7,-999.0,97,-99.99,,,0.00,Acu-Link.com,2013-02-13 16:03:00,
2013-02-13 11:19:00,39.2,38.7,29.71,WNW,292,0.0,-999.0,98,-99.99,,,0.00,Acu-Link.com,2013-02-13 16:19:00,
2013-02-13 11:34:00,39.6,39.1,29.69,ESE,112,0.0,-999.0,98,-99.99,,,0.00,Acu-Link.com,2013-02-13 16:34:00,
2013-02-13 11:49:00,40.3,39.8,29.68,ENE,67,2.2,-999.0,98,-99.99,,,0.00,Acu-Link.com,2013-02-13 16:49:00,
2013-02-13 12:13:00,39.4,38.9,29.67,ESE,112,2.7,-999.0,98,-99.99,,,0.00,Acu-Link.com,2013-02-13 17:13:00,
2013-02-13 12:35:00,39.9,39.4,29.66,ENE,67,0.0,-999.0,98,-99.99,,,0.00,Acu-Link.com,2013-02-13 17:35:00,
2013-02-13 12:50:00,40.3,39.8,29.64,NNE,22,0.0,-999.0,98,-99.99,,,0.00,Acu-Link.com,2013-02-13 17:50:00,
2013-02-13 13:06:00,40.3,37.3,29.62,NW,315,2.2,-999.0,89,-99.99,,,0.00,Acu-Link.com,2013-02-13 18:06:00,
2013-02-13 13:21:00,41.2,10.6,29.60,NNE,22,2.7,-999.0,28,-99.99,,,0.00,Acu-Link.com,2013-02-13 18:21:00,
2013-02-13 13:36:00,42.4,1.9,29.59,East,90,2.2,-999.0,18,-99.99,,,0.00,Acu-Link.com,2013-02-13 18:36:00,
2013-02-13 13:52:00,43.9,-50.7,29.60,ESE,112,1.7,-999.0,1,-99.99,,,0.00,Acu-Link.com,2013-02-13 18:52:00,
2013-02-13 14:07:00,41.9,-51.9,29.59,ENE,67,1.7,-999.0,1,-99.99,,,0.00,Acu-Link.com,2013-02-13 19:07:00,
2013-02-13 14:22:00,42.4,-51.6,29.59,ENE,67,1.7,-999.0,1,-99.99,,,0.00,Acu-Link.com,2013-02-13 19:22:00,
2013-02-13 14:37:00,43.5,-50.9,29.59,NE,45,0.0,-999.0,1,-99.99,,,0.00,Acu-Link.com,2013-02-13 19:37:00,
2013-02-13 14:53:00,44.6,-50.3,29.58,East,90,0.0,-999.0,1,-99.99,,,0.00,Acu-Link.com,2013-02-13 19:53:00,
2013-02-13 15:08:00,45.1,-50.0,29.58,ESE,112,0.0,-999.0,1,-99.99,,,0.00,Acu-Link.com,2013-02-13 20:08:00,
2013-02-13 15:23:00,43.3,-51.1,29.57,East,90,2.7,-999.0,1,-99.99,,,0.00,Acu-Link.com,2013-02-13 20:23:00,
2013-02-13 15:39:00,43.0,-51.2,29.57,WSW,247,0.0,-999.0,1,-99.99,,,0.00,Acu-Link.com,2013-02-13 20:39:00,
2013-02-13 15:54:00,43.0,-51.2,29.58,ENE,67,1.1,-999.0,1,-99.99,,,0.00,Acu-Link.com,2013-02-13 20:54:00,
2013-02-13 16:09:00,42.1,-51.8,29.57,East,90,0.0,-999.0,1,-99.99,,,0.00,Acu-Link.com,2013-02-13 21:09:00,
2013-02-13 16:25:00,41.5,-52.2,29.56,East,90,0.0,-999.0,1,-99.99,,,0.00,Acu-Link.com,2013-02-13 21:25:00,
2013-02-13 16:40:00,40.8,36.9,29.55,East,90,0.0,-999.0,86,-99.99,,,0.00,Acu-Link.com,2013-02-13 21:40:00,
2013-02-13 16:55:00,40.1,39.6,29.54,East,90,0.0,-999.0,98,-99.99,,,0.00,Acu-Link.com,2013-02-13 21:55:00,
2013-02-13 17:10:00,39.4,-53.5,29.52,WSW,247,0.0,-999.0,1,-99.99,,,0.00,Acu-Link.com,2013-02-13 22:10:00,
2013-02-13 17:25:00,38.7,-53.9,29.53,ESE,112,0.0,-999.0,1,-99.99,,,0.00,Acu-Link.com,2013-02-13 22:25:00,
2013-02-13 17:41:00,37.9,-54.4,29.52,ENE,67,0.0,-999.0,1,-99.99,,,0.00,Acu-Link.com,2013-02-13 22:41:00,
2013-02-13 18:06:00,37.6,-54.6,29.51,NE,45,0.0,-999.0,1,-99.99,,,0.00,Acu-Link.com,2013-02-13 23:06:00,
2013-02-13 18:34:00,36.7,-55.1,29.52,SSE,157,0.0,-999.0,1,-99.99,,,0.00,Acu-Link.com,2013-02-13 23:34:00,
2013-02-13 18:49:00,36.7,-55.1,29.54,East,90,0.0,-999.0,1,-99.99,,,0.00,Acu-Link.com,2013-02-13 23:49:00,
2013-02-13 19:04:00,36.5,-55.3,29.54,ESE,112,1.7,-999.0,1,-99.99,,,0.00,Acu-Link.com,2013-02-14 00:04:00,
2013-02-13 19:20:00,36.3,-55.4,29.54,East,90,0.0,-999.0,1,-99.99,,,0.00,Acu-Link.com,2013-02-14 00:20:00,
2013-02-13 19:35:00,36.0,-55.6,29.54,East,90,0.0,-999.0,1,-99.99,,,0.00,Acu-Link.com,2013-02-14 00:35:00,
2013-02-13 19:51:00,35.6,-55.8,29.53,WSW,247,0.0,-999.0,1,-99.99,,,0.00,Acu-Link.com,2013-02-14 00:51:00,
2013-02-13 20:08:00,35.4,-56.0,29.52,SSE,157,0.0,-999.0,1,-99.99,,,0.00,Acu-Link.com,2013-02-14 01:08:00,
2013-02-13 22:00:00,34.5,34.0,29.53,NNE,22,0.0,-999.0,98,-99.99,,,0.00,Acu-Link.com,2013-02-14 03:00:00,
2013-02-13 22:31:00,39.2,38.7,29.52,NE,45,2.2,-999.0,98,-99.99,,,0.00,Acu-Link.com,2013-02-14 03:31:00,
2013-02-13 22:46:00,39.6,39.1,29.53,NNE,22,1.7,-999.0,98,-99.99,,,0.00,Acu-Link.com,2013-02-14 03:46:00,
2013-02-13 23:02:00,39.9,39.4,29.53,NNE,22,1.7,-999.0,98,-99.99,,,0.00,Acu-Link.com,2013-02-14 04:02:00,
2013-02-13 23:17:00,40.3,39.8,29.53,NNE,22,1.1,-999.0,98,-99.99,,,0.00,Acu-Link.com,2013-02-14 04:17:00,
2013-02-13 23:32:00,40.5,40.0,29.53,NE,45,1.7,-999.0,98,-99.99,,,0.00,Acu-Link.com,2013-02-14 04:32:00,
2013-02-13 23:47:00,40.8,40.3,29.53,North,0,1.7,-999.0,98,-99.99,,,0.00,Acu-Link.com,2013-02-14 04:47:00,